IRS 1C

导读

IRS 1C是印度(IN)研制的遥感卫星,于1995年12月28日发射入轨,属于印度遥感卫星系列的第三代卫星。该卫星搭载了全色相机、多光谱扫描仪等先进载荷,能提供更高分辨率的地球观测数据,广泛应用于农业资源调查、国土资源监测、环境变化监测、城市规划、地图绘制等多个领域,为印度及全球用户提供了宝贵的对地观测信息,推动了地球空间信息应用的发展,在资源管理与环境保护领域发挥了重要作用。

Basic Information
目录编号:
23751
目录名称:
IRS 1C
国际标识:
1995-072A
轨道中心:
EARTH
卫星名称:
IRS 1C
卫星全名:
--
卫星状态:
在轨 (已飞行11127 天)
发射日期:
1995-12-28 UTC
国别 :
印度 (IN)
星等 :
--
Orbit Information
数据来源 国际轨道数据 AOE轨道数据
星历时间 2026-06-15T07:22:29+0800
6小时前
查看轨道信息
2026-06-13T03:00:00+0800
2天前
查看轨道信息
半长轴 7191.448km 7191.446km
偏心率 0.0001066 0.0001734
轨道倾角 99.021° 99.020°
近地点辐角 83.105° 78.347°
升交点赤经 184.989° 182.751°
平近点角 277.025° 264.221°
近地点 812.544km 812.062km
远地点 814.078km 814.556km
周期 101.154分钟 101.154分钟
每日圈数 14.235681 14.235688
Detailed Information
使用方式:
暂无
2D Orbit Map
3D Orbit Map
Orbit Altitude Analysis Chart
Orbit Inclination Analysis Chart
Orbit Comprehensive Analysis Chart
View Comprehensive Chart